This is the latest recevied weather packets stored in our database for station/object W4SPD. If no packets are shown the sender has not sent any weather packets the latest 1 day(s).
| Time | Temp. | Humidity | Pressure | Rain* | Wind** | Luminosity | Snow |
|---|---|---|---|---|---|---|---|
| 1778007249 | 24.44° C | 41% | - | 0 mm | 0.89 m/s, 189° | - | - |
| 1778006945 | 25° C | 41% | - | 0 mm | 0.89 m/s, 180° | - | - |
| 1778006642 | 25° C | 44% | - | 0 mm | 0.89 m/s, 164° | - | - |
| 1778006338 | 25.56° C | 39% | - | 0 mm | 0.89 m/s, 219° | - | - |
| 1778006035 | 25.56° C | 40% | - | 0 mm | 0.45 m/s, 172° | - | - |
| 1778005732 | 25° C | 43% | - | 0 mm | 0 m/s | - | - |
| 1778005428 | 25° C | 40% | - | 0 mm | 0 m/s | - | - |
| 1778005125 | 25° C | 40% | - | 0 mm | 0 m/s | - | - |
| 1778004822 | 25° C | 41% | - | 0 mm | 0.45 m/s, 162° | - | - |
| 1778004519 | 25° C | 41% | - | 0 mm | 0.89 m/s, 243° | - | - |
| 1778004215 | 25° C | 41% | - | 0 mm | 0.45 m/s, 135° | - | - |
| 1778003912 | 24.44° C | 43% | - | 0 mm | 0.89 m/s, 167° | - | - |
| 1778003608 | 25° C | 41% | - | 0 mm | 0.89 m/s, 178° | - | - |
| 1778003305 | 24.44° C | 42% | - | 0 mm | 0.45 m/s, 116° | - | - |
| 1778003002 | 24.44° C | 45% | - | 0 mm | 0 m/s | - | - |
| 1778002698 | 24.44° C | 44% | - | 0 mm | 0.45 m/s, 191° | - | - |
| 1778002394 | 25° C | 46% | - | 0 mm | 0.89 m/s, 137° | - | - |
| 1778002092 | 24.44° C | 43% | - | 0 mm | 0 m/s | - | - |
| 1778001789 | 24.44° C | 43% | - | 0 mm | 0.45 m/s, 250° | - | - |
| 1778001484 | 24.44° C | 42% | - | 0 mm | 0.89 m/s, 168° | - | - |
| 1778001181 | 24.44° C | 41% | - | 0 mm | 0.89 m/s, 142° | - | - |
| 1778000877 | 24.44° C | 42% | - | 0 mm | 0.45 m/s, 168° | - | - |
| 1778000575 | 23.89° C | 44% | - | 0 mm | 0.45 m/s, 206° | - | - |
| 1778000270 | 23.89° C | 43% | - | 0 mm | 0.89 m/s, 160° | - | - |
| 1777999966 | 24.44° C | 45% | - | 0 mm | 0.45 m/s, 159° | - | - |
* Rain latest hour (hover to see other rain measurements)
** Current wind speed in m/s (hover to see current wind gust speed)